STARLINK-32259, 60937

Orbit data source: Space-Track

STARLINK-32259, 60937 is a payload satellite owned by SpaceX/Seattle (US) in LEO that was launched on Sat, 31 Aug 2024 UTC via an FALCON 9 launch vehicle from the Air Force Western Test Range (AFWTR). Payloads include a variety of satellites, spacecraft, and rockets equipped with specific instruments for various scientific and technological missions. These include communications satellites like Starlink; space stations such as the ISS; scientific satellites like the Hubble; Earth observation satellites from companies like Planet Labs, Umbra, and HawkEye 360; GPS; miniature CubeSats for education and research; and military/defense satellites.

Loading next visibility...
STARLINK-32259 details
Identifier
60937, 2024-155P
Orbit
LEO
Last TLE update18 hours ago
Origin
Flag of USSpaceX/Seattle (US)
ManufacturerSpaceX/Seattle
MissionOperational spacecraft
Bus & MotorSTARLINK V2M, Unknown motor
Mass730 kg wet, ~700 kg dry
Launch date (UTC)
2024-08-31 (5 months ago)
Launch vehicle
FALCON 9
Launch site
Air Force Western Test Range (AFWTR)
Object type
Payload
Rocket body
Debris
Shape & HBRUnknown
Radar Cross SectionLarge (>1 m²)

Expand to show TLE details & history

TLE from 18 hours ago
0 STARLINK-32259
1 60937U 24155P   25014.85944724 -.00000898  00000-0 -18195-4 0  9992
2 60937  53.1597 275.2674 0001421  81.7189 278.3972 15.30200520 22215
Epoch: 2025-01-14T20:37Z
Definitive object data (Epoch: 2025-01-14T20:37:36.241Z)
Latitude-0.00009°
Longitude-148.69377°
Altitude475.971 km
Speed7.629 km/s
True Right ascension18h 21m 04s
True Declination0° 00' 00"
Sunlit
Object was in daylight at TLE epoch
Visualization TLE readout
Latitude-0.90809°
Longitude28.49228°
Altitude476.356 km
Speed7.629 km/s
Apparent Right ascension04h 59m 45s
Apparent Declination-20° 50' 13"
Sunlit
Object is in full shadow
Visualization observer readout
Local Sidereal Time15:20:10
Azimuth304.571° NW
Elevation-61.456°
Doppler factor1
Orbital elements
Apogee altitude476.444 km
Perigee altitude474.496 km
Semi-major axis6,853.607 km
Eccentricity0.0001421
Inclination53.1597°
RAAN275.2674°
Arg. of periapsis81.7189°
True anomaly278.38109°
Mean anomaly278.3972°
Eccentric anomaly278.38915°
Mean motion3.82529 °/min
BSTAR-0.000018195
Orbital period94.11 mins
Loading maneuver chart data...
Loading historical data...
Loading historical data...
Loading historical data...
Loading historical data...
Loading historical data...
Loading historical data...
Loading historical data...

STARLINK-32259 Visibility forecast

Observer location: undefined°, undefined

Span
Click to sort rows by Start time (UTC) header in descending order
Start Az.
Max El. time (UTC)
Max El. Az.
Max El.
End time (UTC)
End Az.
4 mins2025-01-15 18:43:26.652Z170.057° S2025-01-15 18:45:26.652Z134.892° SE17.378°2025-01-15 18:47:26.652Z94.912° ESE
5 mins2025-01-15 20:21:26.652Z257.773° W2025-01-15 20:23:26.652Z329.748° NNW37.804°2025-01-15 20:26:26.652Z39.446° NE
4 mins2025-01-16 01:18:26.652Z346.961° N2025-01-16 01:20:26.652Z31.633° NE20.792°2025-01-16 01:22:26.652Z71.313° E
5 mins2025-01-16 02:56:26.652Z295.621° NW2025-01-16 02:58:26.652Z217.081° SW40.819°2025-01-16 03:01:26.652Z145.19° SSE
|